sat.trackr.live / text

‹ back to catalog

QPS-SAR-12 (KUSHINADA-I)

NORAD 65116 · 2025-169A

PAYLOAD ACTIVE UNKNOWN

§ Identity

Operator
Country
JPN
Launch date
2025-08-05
Launch site
RLLB
Launch vehicle
Mass (kg)
RCS (m²)

External: N2YO · Heavens-Above · Gunter

§ Orbital elements

Epoch: 2026-09-21T04:17:07.959840Z

Period
95.90 min
Inclination
42.0104°
Eccentricity
0.0006990
Mean motion
15.01534081 rev/d
Perigee alt
557.3 km
Apogee alt
567.0 km
Semi-major
6,940.3 km
B*
2.3009e-4
RAAN
207.0715°
Arg perigee
129.1154°
Mean anomaly
231.0294°
Rev number
6,184

§ Raw data

QPS-SAR-12 (KUSHINADA-I)1 65116U 25169A   26264.17856435  .00002844  00000+0  23009-3 0  99952 65116  42.0104 207.0715 0006990 129.1154 231.0294 15.01534081 61849

JSON: /api/v1/satellites/65116 · /tle

For live sub-satellite position, see the globe view (requires WebGL).

§ Visibility from observer

Set your observer location to see the next 7 days of passes ≥ 10°. The values pass through the URL so the page stays shareable.

No JS? Fill the form by hand. The geolocation button needs JavaScript.